SCP
0 0 0 0 0 0 0 0 0 0 0 0 0 0 0 0 0 0 0 0 0 0 0 0 0 0 0 0 0 0 0 0 0 0 0 0 0 0 0 0 0 0 1
0 0 0 0 0 0 0 0 0 0 0 0 0 0 0 0 0 0 0 0 0 0 0 0 0 0 0 0 0 0 0 0 0 0 0 0 0 0 0 0 0 0 0
0 0 0 0 0 0 0 0 0 0 0 0 0 0 0 0 0 0 0 0 0 0 0 0 0 0 0 0 0 0 0 0 0 0 0 0 0 0 0 0 0 0 0
0 0 0 0 0 0 0 0 0 0 0 0 0 0 0 0 0 0 0 0 0 0 0 0 0 0 0 0 0 0 0 0 0 0 0 0 0 0 0 0 0 0 0
0 0 0 0 0 0 0 0 0 0 0 0 0 0 0 0 0 0 0 0 0 0 0 0 0 0 0 0 0 0 0 0 0 0 0 0 0 0 0 0 0 0 0
0 0 0 0 0 0 0 0 0 0 0 0 0 0 0 0 0 0 0 0 0 0 0 0 0 0 0 0 0 0 0 0 0 0 0 0 0 0 0 0 0 0 0
0 0 0 0 0 0 0 0 0 0 0 0 0 0 0 0 0 0 0 0 0 0 0 0 0 0 0 0 0 0 0 0 0 0 0 0 0 0 0 0 0 0 0
0 0 0 0 0 0 0 0 0 0 0 0 0 0 0 0 0 0 0 0 0 0 0 0 0 0 0 0 0 0 0 0 0 0 0 0 0 0 0 0 0 0 0
0 0 0 0 0 0 0 0 0 0 0 0 0 0 0 0 0 0 0 0 0 0 0 0 0 0 0 0 0 0 0 0 0 0 0 0 0 0 0 0 0 0 0
0 0 0 0 0 0 0 0 0 0 0 0 0 0 0 0 0 0 0 0 0 0 0 0 0 0 0 0 0 0 0 0 0 0 0 0 0 0 0 0 0 0 0
0 0 0 0 0 0 0 0 0 0 0 0 0 0 0 0 0 0 0 0 0 0 0 0 0 0 0 0 0 0 0 0 0 0 0 0 0 0 0 0 0 0 0
0 0 0 0 0 0 0 0 0 0 0 0 0 0 0 0 0 0 0 0 0 0 0 0 0 0 0 0 0 0 0 0 0 0 0 0 0 0 0 0 0 0 0
0 0 0 0 0 0 0 0 0 0 0 0 0 0 0 0 0 -0 -0 -0 0 0 0 0 0 0 0 0 0 0 0 0 0 0 0 0 0 0 0 0 0 0 0
0 0 0 0 0 0 0 0 0 0 0 0 0 0 0 0 0 -0 0 0 0 0 0 0 0 0 0 0 0 0 0 0 0 0 0 0 0 0 0 0 0 0 0
0 0 0 0 0 0 0 0 0 0 0 0 0 0 0 0 0 0 0 0 0 0 0 0 0 0 0 0 0 0 0 0 0 0 0 0 0 0 0 -0 -0 0 0
0 0 0 0 0 0 0 0 0 0 0 0 0 0 0 0 0 0 0 0 0 0 0 0 0 0 0 0 0 0 0 0 0 0 0 0 0 0 -0 0 0 -0 -0
0 0 0 0 0 0 0 0 0 0 0 0 0 0 0 0 0 0 0 0 0 0 0 0 0 0 0 0 0 0 0 0 0 0 0 0 0 0 0 0 0 0 0
0 0 0 0 0 0 0 0 0 0 0 0 0 0 0 0 0 0 0 0 0 0 0 0 0 0 0 0 0 0 0 0 0 0 0 0 0 0 0 0 0 0 0
0 0 0 0 0 0 0 0 0 0 0 0 0 0 0 0 0 0 0 0 0 0 0 0 0 0 0 0 0 0 0 0 0 0 0 0 0 0 0 0 0 0 0
0 0 0 0 0 0 0 0 0 0 0 0 0 0 0 0 0 0 0 0 0 0 0 0 0 0 0 0 0 0 0 0 0 0 0 0 0 0 0 0 0 0 0
0 0 0 0 0 0 0 0 0 0 0 0 0 0 0 0 0 0 0 0 0 0 0 0 0 0 0 0 0 0 0 0 0 0 0 0 0 0 0 0 0 0 0
0 0 0 0 0 0 0 0 0 0 0 0 0 0 0 0 0 0 0 0 0 0 0 0 0 0 0 0 0 0 0 0 0 0 0 0 0 0 0 0 0 0 0
0 0 0 0 0 0 0 0 0 0 0 0 0 0 0 0 0 0 0 0 0 0 0 0 0 0 0 0 0 0 0 0 0 0 0 0 0 0 0 0 0 0 0
0 0 0 0 0 0 0 0 0 0 0 0 0 0 0 0 0 0 0 0 0 0 0 0 0 0 0 0 0 0 0 0 0 0 0 0 0 0 0 0 0 0 0
0 0 0 0 0 0 0 0 0 0 0 0 0 0 0 0 0 0 0 0 0 0 0 0 0 0 0 0 0 0 0 0 0 0 0 0 0 0 0 0 0 0 0
0 0 0 0 0 0 0 0 0 0 0 0 0 0 0 0 0 0 0 0 0 0 0 0 0 0 0 0 0 0 0 0 0 0 0 0 0 0 0 0 0 0 0
Wind_Speed_500mb
35 38 41 42 42 42 43 42 41 40 39 37 37 36 35 35 35 35 37 40 41 41 39 39 40 42 45 50 56 59 61 63 63 67 73 73 62 60 90 82 79 81 79
37 39 40 41 43 44 46 45 43 41 38 34 31 31 30 30 30 29 29 30 32 33 34 36 38 40 42 45 48 53 60 66 72 78 83 78 67 68 62 71 73 85 83
39 41 42 41 42 43 43 43 41 38 35 31 25 23 25 26 26 24 24 24 24 25 26 27 30 33 37 40 43 49 56 61 67 73 78 82 82 85 82 86 83 70 77
42 43 43 42 41 41 39 37 35 31 31 28 23 21 21 21 21 20 21 20 19 20 21 24 26 29 33 38 44 49 55 61 68 70 72 77 80 81 86 92 92 88 85
46 45 42 41 41 40 37 33 31 30 25 23 21 19 19 17 16 15 13 11 10 12 15 20 25 29 33 38 42 48 52 57 63 70 78 81 79 75 83 87 96 99 102
44 44 44 43 41 38 35 33 29 27 24 20 16 14 15 16 14 12 9 4 7 15 21 25 29 33 38 43 47 51 55 60 65 70 76 82 89 93 85 86 90 96 103
42 41 42 44 41 37 33 30 26 23 22 20 14 9 13 15 16 16 12 12 8 13 21 28 33 38 43 46 50 53 57 60 64 70 75 82 89 93 95 94 78 83 91
43 44 44 42 40 35 30 27 24 20 19 17 12 9 7 13 19 21 20 11 10 14 24 30 35 37 41 44 46 49 54 60 66 71 75 78 82 89 93 96 90 77 75
46 45 41 38 35 31 27 25 22 18 15 13 11 3 2 4 9 21 19 13 17 24 32 38 36 37 39 42 45 46 49 54 60 66 72 75 78 78 82 88 89 82 79
46 42 39 36 32 30 26 24 22 20 17 13 12 9 9 13 5 10 11 20 27 34 35 33 30 28 31 35 39 42 47 51 55 62 70 77 79 76 72 72 80 82 80
42 38 35 33 30 28 27 26 24 21 18 16 15 13 12 11 12 11 26 35 40 35 34 31 26 23 26 33 38 43 50 57 63 67 71 76 78 79 68 68 72 74 78
37 34 32 30 29 28 27 26 24 22 19 17 16 16 15 12 12 17 26 39 51 46 39 28 23 25 29 38 46 50 54 60 61 65 70 74 76 77 66 67 70 72 74
33 32 32 32 32 30 29 27 25 22 21 21 21 21 21 22 25 21 25 33 42 58 44 21 23 27 44 48 46 50 52 58 55 56 62 68 68 66 62 67 68 76 77
34 36 37 37 35 33 32 29 26 24 24 24 24 25 26 26 17 16 19 22 33 37 50 42 35 34 56 53 50 47 50 53 53 54 59 64 61 61 62 67 68 70 69
36 39 39 36 34 34 32 29 27 26 27 27 24 26 26 17 20 22 25 23 21 20 35 37 44 58 62 58 50 47 44 46 48 55 60 61 57 62 69 72 71 63 61
35 34 31 30 31 31 29 29 27 26 27 22 24 21 14 18 22 24 25 24 22 26 38 47 61 61 58 56 45 43 40 41 46 48 48 51 55 52 52 53 53 58 58
28 29 29 30 28 26 27 26 25 24 22 21 16 10 12 17 19 18 19 21 23 26 47 59 58 52 50 50 40 36 42 48 47 49 47 54 57 48 47 50 52 57 55
24 26 28 27 24 23 24 27 25 24 21 13 4 6 10 12 13 13 14 15 20 25 37 54 50 46 47 47 45 44 44 41 41 44 49 56 47 44 45 47 48 53 51
22 23 21 21 22 24 27 24 24 26 22 16 14 13 13 12 11 12 12 14 17 21 26 39 46 42 45 45 46 42 40 39 36 43 43 43 48 48 51 53 53 52 51
22 21 22 23 26 27 25 25 27 25 22 20 19 18 19 20 19 20 20 19 22 26 28 34 39 41 42 44 46 52 47 39 41 31 33 40 41 41 43 42 41 41 49
22 25 27 28 28 26 26 29 30 27 27 27 26 26 26 28 26 26 27 23 27 30 31 34 37 40 41 44 47 51 52 53 42 38 43 37 41 43 45 40 32 32 37
27 30 31 31 30 29 30 33 33 35 35 35 34 33 34 34 32 32 33 33 31 32 32 35 36 39 38 41 42 45 49 55 50 44 47 40 40 40 39 36 34 34 33
36 38 38 38 37 37 37 38 39 44 42 42 42 41 41 40 39 38 37 39 38 36 37 37 40 35 41 37 43 42 41 43 44 47 49 40 35 40 34 34 34 31 34
45 46 46 47 49 46 43 45 47 51 52 50 50 48 48 45 42 43 44 45 42 41 38 41 44 41 40 39 40 42 42 44 43 39 42 35 39 41 34 30 33 32 32
50 52 55 55 57 56 52 53 55 58 60 60 58 54 54 53 46 45 52 54 49 47 39 46 46 44 43 43 43 46 41 44 49 44 42 31 42 43 36 26 32 35 33
46 50 54 55 58 62 61 63 63 66 69 69 67 62 59 57 53 51 56 58 60 53 43 46 47 47 45 46 47 46 45 44 42 42 28 41 44 38 23 25 39 34 31
Wind_Direction_500mb
292 297 300 302 301 300 299 297 293 286 281 277 276 273 272 272 269 265 262 264 264 265 266 265 266 265 264 264 264 266 266 267 268 268 268 270 280 263 264 276 260 261 260
290 293 295 298 299 300 300 299 296 291 286 279 273 271 269 267 266 266 266 265 266 267 269 270 271 271 271 273 273 273 272 272 271 272 275 277 275 270 265 259 264 263 267
291 294 296 297 298 300 299 297 295 293 291 289 284 273 265 263 263 264 265 267 270 272 273 276 280 283 283 281 278 277 277 276 275 277 278 279 275 271 269 267 265 265 263
292 295 297 299 300 301 299 295 291 288 288 288 286 279 270 264 262 260 259 259 263 269 280 284 284 284 285 287 287 286 284 284 283 280 277 279 281 275 268 265 268 266 260
294 296 297 299 300 300 298 295 292 290 287 283 283 277 266 255 248 243 241 247 268 290 300 302 304 304 304 301 296 293 291 289 288 288 290 289 286 284 280 274 268 268 267
291 294 296 297 298 297 294 294 293 293 292 290 283 274 259 249 228 213 215 250 314 309 310 307 305 306 306 305 305 304 304 304 302 299 296 294 295 294 290 289 279 272 270
289 290 292 295 295 293 290 287 287 288 292 297 298 275 253 223 208 188 186 276 267 295 301 305 306 306 305 305 306 305 304 302 301 301 299 296 295 293 292 291 292 286 280
286 288 289 289 288 287 286 284 284 288 293 297 304 298 209 204 209 209 253 220 292 309 308 308 306 305 308 310 309 308 307 304 302 299 298 296 294 291 290 290 292 291 288
283 284 284 282 281 279 278 277 278 281 280 285 292 260 257 221 219 262 209 256 317 321 318 312 311 313 317 315 313 309 305 302 301 300 300 298 295 291 289 287 289 291 289
279 278 277 275 272 272 270 269 272 273 276 271 269 270 260 265 275 283 251 268 303 321 316 311 309 312 318 325 324 324 321 314 309 304 302 302 300 297 294 296 294 293 292
273 271 269 267 266 266 266 265 266 268 268 269 272 277 284 294 295 291 301 307 321 327 316 318 326 333 342 343 332 326 321 318 314 312 308 305 303 301 298 296 296 295 291
268 267 264 261 262 264 262 262 262 263 265 265 263 268 277 275 255 284 293 310 323 312 318 335 343 351 352 345 344 332 324 317 313 310 310 307 302 300 298 296 296 298 297
265 263 262 261 262 262 258 258 259 260 263 264 267 271 279 281 273 275 288 314 314 311 319 330 349 351 350 342 338 331 328 330 324 314 311 310 307 303 294 299 299 294 295
264 263 265 263 261 257 255 255 256 260 265 270 277 282 278 268 275 279 288 297 308 307 313 325 336 340 340 336 337 333 333 332 328 327 322 316 305 301 296 299 302 293 289
269 268 265 262 257 252 251 254 258 263 270 273 276 272 269 286 286 284 279 277 287 305 310 314 323 330 331 330 330 326 331 335 329 324 320 313 307 300 298 301 299 297 298
272 270 261 255 252 250 251 254 259 265 268 270 265 264 300 299 290 281 274 272 269 275 276 302 315 329 330 325 323 320 322 324 328 331 322 315 310 313 307 306 295 300 297
273 266 261 256 256 256 254 256 257 257 257 251 258 307 306 300 293 287 277 269 275 282 287 303 317 330 332 329 330 326 323 323 325 325 320 313 312 317 326 303 305 299 297
275 271 261 255 257 260 258 255 251 242 234 228 262 327 320 310 300 292 286 288 295 295 292 304 322 335 339 339 337 334 334 331 327 327 325 315 311 320 316 309 306 307 308
277 270 267 262 259 256 252 249 242 232 230 240 257 272 287 296 298 291 295 303 306 304 305 312 324 336 340 341 342 342 340 337 331 324 327 321 318 311 306 303 300 301 304
287 286 275 265 256 249 247 238 230 235 245 252 257 264 270 274 277 281 283 289 295 300 306 310 321 330 337 344 346 346 351 354 343 337 344 341 344 338 328 314 307 301 301
286 282 271 260 252 246 238 234 242 248 253 257 261 265 267 269 272 275 279 280 281 289 296 305 311 318 331 339 344 348 347 350 358 358 358 344 348 350 347 341 325 315 315
273 268 266 259 252 244 242 246 252 257 260 262 262 264 268 269 270 271 275 277 279 285 289 297 306 312 322 328 332 339 343 348 354 349 344 351 347 352 351 355 353 347 347
262 264 261 257 254 251 251 256 259 262 262 264 266 266 265 267 268 269 269 271 273 278 284 290 297 306 308 318 320 327 331 333 334 341 335 343 343 346 347 355 357 1 3
261 260 259 259 259 257 257 260 262 264 266 267 268 268 268 266 265 269 269 267 268 269 273 278 286 295 297 303 307 314 319 319 323 327 330 321 338 340 335 339 355 351 350
264 263 262 261 261 261 260 260 261 263 266 268 268 267 267 268 267 267 269 270 269 266 267 274 280 285 291 295 301 304 308 308 313 319 320 309 325 329 329 319 342 347 347
271 268 267 266 265 265 263 261 260 263 265 267 268 267 264 266 269 267 265 268 269 271 270 268 275 280 285 289 292 293 295 296 300 311 305 311 316 325 322 309 325 330 334
Wind_Speed_850mb
35 38 41 42 42 42 43 42 41 40 39 37 37 36 35 35 35 35 37 40 41 41 39 39 40 42 45 50 56 59 61 63 63 67 73 73 62 60 90 82 79 81 79
37 39 40 41 43 44 46 45 43 41 38 34 31 31 30 30 30 29 29 30 32 33 34 36 38 40 42 45 48 53 60 66 72 78 83 78 67 68 62 71 73 85 83
39 41 42 41 42 43 43 43 41 38 35 31 25 23 25 26 26 24 24 24 24 25 26 27 30 33 37 40 43 49 56 61 67 73 78 82 82 85 82 86 83 70 77
42 43 43 42 41 41 39 37 35 31 31 28 23 21 21 21 21 20 21 20 19 20 21 24 26 29 33 38 44 49 55 61 68 70 72 77 80 81 86 92 92 88 85
46 45 42 41 41 40 37 33 31 30 25 23 21 19 19 17 16 15 13 11 10 12 15 20 25 29 33 38 42 48 52 57 63 70 78 81 79 75 83 87 96 99 102
44 44 44 43 41 38 35 33 29 27 24 20 16 14 15 16 14 12 9 4 7 15 21 25 29 33 38 43 47 51 55 60 65 70 76 82 89 93 85 86 90 96 103
42 41 42 44 41 37 33 30 26 23 22 20 14 9 13 15 16 16 12 12 8 13 21 28 33 38 43 46 50 53 57 60 64 70 75 82 89 93 95 94 78 83 91
43 44 44 42 40 35 30 27 24 20 19 17 12 9 7 13 19 21 20 11 10 14 24 30 35 37 41 44 46 49 54 60 66 71 75 78 82 89 93 96 90 77 75
46 45 41 38 35 31 27 25 22 18 15 13 11 3 2 4 9 21 19 13 17 24 32 38 36 37 39 42 45 46 49 54 60 66 72 75 78 78 82 88 89 82 79
46 42 39 36 32 30 26 24 22 20 17 13 12 9 9 13 5 10 11 20 27 34 35 33 30 28 31 35 39 42 47 51 55 62 70 77 79 76 72 72 80 82 80
42 38 35 33 30 28 27 26 24 21 18 16 15 13 12 11 12 11 26 35 40 35 34 31 26 23 26 33 38 43 50 57 63 67 71 76 78 79 68 68 72 74 78
37 34 32 30 29 28 27 26 24 22 19 17 16 16 15 12 12 17 26 39 51 46 39 28 23 25 29 38 46 50 54 60 61 65 70 74 76 77 66 67 70 72 74
33 32 32 32 32 30 29 27 25 22 21 21 21 21 21 22 25 21 25 33 42 58 44 21 23 27 44 48 46 50 52 58 55 56 62 68 68 66 62 67 68 76 77
34 36 37 37 35 33 32 29 26 24 24 24 24 25 26 26 17 16 19 22 33 37 50 42 35 34 56 53 50 47 50 53 53 54 59 64 61 61 62 67 68 70 69
36 39 39 36 34 34 32 29 27 26 27 27 24 26 26 17 20 22 25 23 21 20 35 37 44 58 62 58 50 47 44 46 48 55 60 61 57 62 69 72 71 63 61
35 34 31 30 31 31 29 29 27 26 27 22 24 21 14 18 22 24 25 24 22 26 38 47 61 61 58 56 45 43 40 41 46 48 48 51 55 52 52 53 53 58 58
28 29 29 30 28 26 27 26 25 24 22 21 16 10 12 17 19 18 19 21 23 26 47 59 58 52 50 50 40 36 42 48 47 49 47 54 57 48 47 50 52 57 55
24 26 28 27 24 23 24 27 25 24 21 13 4 6 10 12 13 13 14 15 20 25 37 54 50 46 47 47 45 44 44 41 41 44 49 56 47 44 45 47 48 53 51
22 23 21 21 22 24 27 24 24 26 22 16 14 13 13 12 11 12 12 14 17 21 26 39 46 42 45 45 46 42 40 39 36 43 43 43 48 48 51 53 53 52 51
22 21 22 23 26 27 25 25 27 25 22 20 19 18 19 20 19 20 20 19 22 26 28 34 39 41 42 44 46 52 47 39 41 31 33 40 41 41 43 42 41 41 49
22 25 27 28 28 26 26 29 30 27 27 27 26 26 26 28 26 26 27 23 27 30 31 34 37 40 41 44 47 51 52 53 42 38 43 37 41 43 45 40 32 32 37
27 30 31 31 30 29 30 33 33 35 35 35 34 33 34 34 32 32 33 33 31 32 32 35 36 39 38 41 42 45 49 55 50 44 47 40 40 40 39 36 34 34 33
36 38 38 38 37 37 37 38 39 44 42 42 42 41 41 40 39 38 37 39 38 36 37 37 40 35 41 37 43 42 41 43 44 47 49 40 35 40 34 34 34 31 34
45 46 46 47 49 46 43 45 47 51 52 50 50 48 48 45 42 43 44 45 42 41 38 41 44 41 40 39 40 42 42 44 43 39 42 35 39 41 34 30 33 32 32
50 52 55 55 57 56 52 53 55 58 60 60 58 54 54 53 46 45 52 54 49 47 39 46 46 44 43 43 43 46 41 44 49 44 42 31 42 43 36 26 32 35 33
46 50 54 55 58 62 61 63 63 66 69 69 67 62 59 57 53 51 56 58 60 53 43 46 47 47 45 46 47 46 45 44 42 42 28 41 44 38 23 25 39 34 31
Wind_Direction_850mb
292 297 300 302 301 300 299 297 293 286 281 277 276 273 272 272 269 265 262 264 264 265 266 265 266 265 264 264 264 266 266 267 268 268 268 270 280 263 264 276 260 261 260
290 293 295 298 299 300 300 299 296 291 286 279 273 271 269 267 266 266 266 265 266 267 269 270 271 271 271 273 273 273 272 272 271 272 275 277 275 270 265 259 264 263 267
291 294 296 297 298 300 299 297 295 293 291 289 284 273 265 263 263 264 265 267 270 272 273 276 280 283 283 281 278 277 277 276 275 277 278 279 275 271 269 267 265 265 263
292 295 297 299 300 301 299 295 291 288 288 288 286 279 270 264 262 260 259 259 263 269 280 284 284 284 285 287 287 286 284 284 283 280 277 279 281 275 268 265 268 266 260
294 296 297 299 300 300 298 295 292 290 287 283 283 277 266 255 248 243 241 247 268 290 300 302 304 304 304 301 296 293 291 289 288 288 290 289 286 284 280 274 268 268 267
291 294 296 297 298 297 294 294 293 293 292 290 283 274 259 249 228 213 215 250 314 309 310 307 305 306 306 305 305 304 304 304 302 299 296 294 295 294 290 289 279 272 270
289 290 292 295 295 293 290 287 287 288 292 297 298 275 253 223 208 188 186 276 267 295 301 305 306 306 305 305 306 305 304 302 301 301 299 296 295 293 292 291 292 286 280
286 288 289 289 288 287 286 284 284 288 293 297 304 298 209 204 209 209 253 220 292 309 308 308 306 305 308 310 309 308 307 304 302 299 298 296 294 291 290 290 292 291 288
283 284 284 282 281 279 278 277 278 281 280 285 292 260 257 221 219 262 209 256 317 321 318 312 311 313 317 315 313 309 305 302 301 300 300 298 295 291 289 287 289 291 289
279 278 277 275 272 272 270 269 272 273 276 271 269 270 260 265 275 283 251 268 303 321 316 311 309 312 318 325 324 324 321 314 309 304 302 302 300 297 294 296 294 293 292
273 271 269 267 266 266 266 265 266 268 268 269 272 277 284 294 295 291 301 307 321 327 316 318 326 333 342 343 332 326 321 318 314 312 308 305 303 301 298 296 296 295 291
268 267 264 261 262 264 262 262 262 263 265 265 263 268 277 275 255 284 293 310 323 312 318 335 343 351 352 345 344 332 324 317 313 310 310 307 302 300 298 296 296 298 297
265 263 262 261 262 262 258 258 259 260 263 264 267 271 279 281 273 275 288 314 314 311 319 330 349 351 350 342 338 331 328 330 324 314 311 310 307 303 294 299 299 294 295
264 263 265 263 261 257 255 255 256 260 265 270 277 282 278 268 275 279 288 297 308 307 313 325 336 340 340 336 337 333 333 332 328 327 322 316 305 301 296 299 302 293 289
269 268 265 262 257 252 251 254 258 263 270 273 276 272 269 286 286 284 279 277 287 305 310 314 323 330 331 330 330 326 331 335 329 324 320 313 307 300 298 301 299 297 298
272 270 261 255 252 250 251 254 259 265 268 270 265 264 300 299 290 281 274 272 269 275 276 302 315 329 330 325 323 320 322 324 328 331 322 315 310 313 307 306 295 300 297
273 266 261 256 256 256 254 256 257 257 257 251 258 307 306 300 293 287 277 269 275 282 287 303 317 330 332 329 330 326 323 323 325 325 320 313 312 317 326 303 305 299 297
275 271 261 255 257 260 258 255 251 242 234 228 262 327 320 310 300 292 286 288 295 295 292 304 322 335 339 339 337 334 334 331 327 327 325 315 311 320 316 309 306 307 308
277 270 267 262 259 256 252 249 242 232 230 240 257 272 287 296 298 291 295 303 306 304 305 312 324 336 340 341 342 342 340 337 331 324 327 321 318 311 306 303 300 301 304
287 286 275 265 256 249 247 238 230 235 245 252 257 264 270 274 277 281 283 289 295 300 306 310 321 330 337 344 346 346 351 354 343 337 344 341 344 338 328 314 307 301 301
286 282 271 260 252 246 238 234 242 248 253 257 261 265 267 269 272 275 279 280 281 289 296 305 311 318 331 339 344 348 347 350 358 358 358 344 348 350 347 341 325 315 315
273 268 266 259 252 244 242 246 252 257 260 262 262 264 268 269 270 271 275 277 279 285 289 297 306 312 322 328 332 339 343 348 354 349 344 351 347 352 351 355 353 347 347
262 264 261 257 254 251 251 256 259 262 262 264 266 266 265 267 268 269 269 271 273 278 284 290 297 306 308 318 320 327 331 333 334 341 335 343 343 346 347 355 357 1 3
261 260 259 259 259 257 257 260 262 264 266 267 268 268 268 266 265 269 269 267 268 269 273 278 286 295 297 303 307 314 319 319 323 327 330 321 338 340 335 339 355 351 350
264 263 262 261 261 261 260 260 261 263 266 268 268 267 267 268 267 267 269 270 269 266 267 274 280 285 291 295 301 304 308 308 313 319 320 309 325 329 329 319 342 347 347
271 268 267 266 265 265 263 261 260 263 265 267 268 267 264 266 269 267 265 268 269 271 270 268 275 280 285 289 292 293 295 296 300 311 305 311 316 325 322 309 325 330 334